Showing default

CONNECTA T1.2, 55012

Orbit data source: Space-Track

CONNECTA T1.2, 55012 is a payload satellite owned by Plan-S (TR) in SSO that was launched on Tue, 03 Jan 2023 UTC via an FALCON 9 launch vehicle from the Air Force Eastern Test Range (AFETR). Payload-class satellites include a variety of spacecraft equipped with specific instruments for various scientific and technological missions. These include communications satellites like Starlink; space stations such as the ISS; scientific satellites like the Hubble; Earth observation satellites from companies like Planet Labs, Umbra, and HawkEye 360; GPS; miniature CubeSats for education and research; and military/defense satellites.

Loading next visibility...
Identifier
55012, 2023-001D
Orbit
SSO
Country
Flag of TRTR / TURK
Related business
Manufacturer
Plan-S
Mission
Operational Commercial Communications
Bus & Motor
CUBESAT 3U, Unknown motor
Mass
4 kg wet, 4 kg dry
Launch date (UTC)
2023-01-03 (3 years ago)
Launch vehicle
FALCON 9
Launch site
Air Force Eastern Test Range (AFETR)
Object type
Payload
Rocket body
Debris
Shape & HBR
Box, 1.2 m
Radar Cross Section
0.035 m², Medium (>0.1 m² and < 1m²)

Expand to show TLE details & history
Last TLE update: 12 hours ago

TLE from 12 hours ago
0 CONNECTA T1.2
1 55012U 23001D   26120.62400048  .00023236  00000-0  45314-3 0  9990
2 55012  97.3306 190.5865 0004759 255.9884 104.0837 15.47510558185180
Epoch: 2026-04-30T14:58Z
TLE epoch observation values (Epoch: 2026-04-30T14:58:33.641Z)
Latitude
-0.00005°
Longitude
107.3784°
Altitude
427.93 km
Speed
7.654 km/s
True Right ascension
12h 42m 20s
True Declination
0° 00' 00"
Sunlit
Object was in full shadow at epoch
Visualization orbit readout
Latitude
Unknown
Longitude
Unknown
Altitude
Unknown
Speed
Unknown
Apparent Right ascension
Unknown
Apparent Declination
Unknown
Sunlit
N/A
Visualization observer readout
Local Sidereal Time
11:03:31
Azimuth
Unknown
Elevation
Unknown
Doppler factor
Unknown
Orbital elements
Apogee altitude
424.173 km
Perigee altitude
417.702 km
Semi-major axis
6,799.074 km
Eccentricity
0.00048
Inclination
97.3306°
RAAN
190.5865°
Arg. of periapsis
255.9884°
True anomaly
104.13659°
Mean anomaly
104.0837°
Eccentric anomaly
104.11014°
Mean motion
3.8714 °/min
Orbital period
92.99 mins
BSTAR
0.00045314
Loading maneuver chart data...
Computing Atmospheric mass density...
Loading historical data...
Loading historical data...
Loading historical data...
Loading historical data...
Loading historical data...
Loading historical data...
Loading historical data...

Documentation

Showing up to 5 results
|